Temperature
32 32 31 32 32 32 33 33 33 33 34 33 32 32 32 32 32 31 30 29 28 27 26 25 24 23 22 21 21 20 20 20 19 19 19 19 19 19 19 19 19 19 18 18
32 32 33 33 34 33 33 33 33 33 34 33 32 31 32 32 32 31 30 29 28 27 26 24 24 23 22 21 21 20 20 20 19 19 19 19 19 19 19 19 19 19 19 18
32 33 34 34 34 33 33 33 33 33 34 34 32 30 30 32 32 32 31 30 29 28 26 24 24 23 22 21 21 20 20 20 20 19 19 19 19 19 19 19 19 18 18 18
32 34 34 33 33 33 33 34 34 33 33 32 32 29 29 30 31 31 31 30 29 28 26 25 24 23 22 21 21 20 20 20 20 19 19 19 19 19 19 18 18 18 18 18
32 33 33 33 33 34 33 34 34 33 32 31 31 30 29 30 30 31 31 30 29 28 26 25 24 23 22 21 21 20 20 20 20 19 19 19 19 19 18 18 18 18 18 18
33 34 34 33 34 34 34 34 33 33 32 29 30 30 28 30 30 31 31 30 29 28 27 25 24 23 22 22 21 20 20 19 19 19 19 19 19 19 18 18 18 18 18 18
32 33 34 34 33 34 33 32 31 29 29 29 30 30 29 30 32 31 31 30 29 28 27 25 24 23 22 22 21 20 20 19 19 19 19 19 19 18 18 18 18 18 18 18
30 31 33 34 33 32 32 32 30 28 28 28 29 29 30 31 32 31 31 30 29 28 26 25 24 23 22 22 21 20 20 19 19 19 19 19 19 18 18 18 18 17 17 17
30 30 33 34 34 33 32 32 32 30 29 28 29 29 30 31 31 31 30 29 28 27 27 26 25 24 23 22 21 21 20 19 19 19 19 19 18 18 18 18 17 17 17 17
31 30 32 33 34 34 33 32 31 30 28 28 28 29 29 29 30 31 30 29 28 27 27 25 24 24 23 22 21 21 20 20 19 19 19 18 18 18 18 17 17 17 17 17
32 30 30 32 32 31 32 32 31 30 29 29 28 28 30 29 29 30 30 29 28 27 26 25 24 23 23 22 21 21 20 20 19 19 19 18 18 18 17 17 17 17 17 17
32 30 29 30 32 32 32 32 31 30 29 29 29 29 30 30 30 30 30 28 27 27 26 25 24 23 22 22 21 20 20 20 19 19 18 18 18 17 17 17 17 17 17 17
31 30 28 29 30 31 31 32 32 31 30 29 29 28 30 30 30 30 29 28 27 26 25 24 24 23 22 21 21 20 20 20 19 19 18 18 18 17 17 17 16 16 16 16
29 30 29 28 29 29 30 30 31 31 30 29 29 29 29 29 30 29 28 28 27 26 25 24 23 22 22 21 20 20 20 19 19 18 18 18 17 17 17 17 16 16 16 16
30 29 29 30 30 30 30 30 30 30 30 30 29 29 28 28 28 28 28 27 26 26 25 24 23 22 21 21 20 20 20 19 19 18 18 17 17 17 17 16 16 16 16 16
29 28 28 29 30 30 29 30 30 30 31 30 29 29 29 28 28 28 27 27 26 26 25 23 23 22 21 21 20 19 19 19 18 18 18 17 17 17 16 16 16 16 16 15
28 27 27 27 29 29 28 29 30 30 30 30 29 29 29 29 28 27 27 27 26 25 24 23 22 22 21 20 20 19 19 19 18 18 17 17 17 16 16 16 16 16 15 15
26 26 27 27 27 26 28 30 30 30 29 30 29 29 29 28 27 27 26 26 25 25 24 23 22 22 21 20 20 19 19 19 18 18 17 17 16 16 16 16 15 15 15 15
27 26 26 26 26 26 28 29 29 29 28 29 29 29 28 28 27 26 25 25 24 24 24 23 22 21 21 20 19 19 19 18 18 17 17 17 16 16 16 16 16 15 15 15
27 26 26 26 25 25 27 29 29 29 27 28 28 28 27 27 26 25 25 24 24 23 23 22 22 21 20 20 19 19 18 18 18 17 17 17 16 16 16 16 15 15 15 15
25 25 25 25 25 26 28 28 28 26 25 27 27 27 26 26 25 25 24 24 23 23 22 22 21 20 20 19 19 19 18 18 17 17 17 17 16 16 16 15 15 15 15 15
25 25 24 25 24 24 27 27 25 24 25 26 26 26 25 25 24 24 23 23 22 22 22 21 20 20 19 19 19 18 18 17 17 17 17 16 16 15 15 15 15 15 15 15
25 25 25 25 25 25 25 25 24 24 24 25 25 25 25 24 24 23 23 22 22 22 21 20 20 19 19 18 18 18 17 17 17 17 16 16 15 15 15 15 15 15 15 14
25 26 25 24 25 25 25 25 24 24 24 24 24 24 24 23 23 22 22 22 21 21 20 20 19 19 18 18 18 17 17 17 17 16 16 16 15 15 15 15 15 15 14 14
24 24 24 23 24 24 24 24 24 24 24 23 23 23 23 22 22 22 21 21 20 20 20 19 19 18 18 17 17 17 17 17 16 16 16 16 15 15 15 15 15 15 15 15
23 23 23 23 23 23 22 23 23 23 23 22 22 22 22 22 21 21 21 20 20 19 19 18 18 17 17 17 17 17 16 16 16 16 15 15 15 15 15 15 15 15 14 14
Wind_Speed
13 12 11 9 11 12 12 9 6 4 4 4 3 3 7 8 9 10 10 9 9 9 9 9 9 9 8 8 7 6 5 4 3 3 2 2 2 2 3 3 3 3 2 2
13 14 13 11 12 13 13 9 7 5 5 6 5 3 5 9 9 9 10 10 10 11 12 11 10 9 8 8 7 7 6 4 3 3 2 2 2 2 3 3 3 3 3 2
15 12 10 11 11 11 11 9 9 9 8 7 5 5 6 7 7 9 10 9 10 11 13 12 10 9 8 8 7 6 5 4 3 3 3 2 3 2 3 3 2 2 2 3
14 14 11 11 12 11 11 10 10 11 10 7 7 6 6 7 7 9 11 11 10 11 12 12 11 10 9 9 8 7 6 5 4 3 3 3 3 2 2 2 2 2 2 2
13 13 13 13 11 11 10 10 12 13 10 10 9 5 5 6 8 10 11 12 11 12 12 12 11 10 10 10 9 8 7 5 4 3 2 2 2 2 2 2 3 2 1 2
17 15 13 12 12 11 10 11 14 12 9 11 10 7 4 6 7 9 11 12 12 12 12 12 12 10 9 9 9 8 7 6 5 4 3 2 2 1 2 2 2 1 1 2
17 16 14 12 12 11 11 11 9 7 6 8 8 6 3 4 7 9 11 11 12 12 12 11 12 11 9 9 9 9 8 6 5 4 3 2 2 2 2 1 1 1 2 2
13 12 12 11 12 9 10 11 9 7 6 7 6 4 3 4 5 7 10 12 12 12 11 11 10 11 10 10 9 9 8 6 6 5 4 2 2 1 1 1 1 2 2 2
10 10 12 11 10 11 11 11 9 9 11 8 5 5 4 6 7 9 11 11 11 11 11 10 10 9 10 10 9 9 9 7 6 5 5 4 3 2 1 1 2 2 2 2
11 9 11 10 11 13 12 10 7 7 7 8 6 5 3 5 6 7 10 10 9 9 10 10 9 8 7 8 9 10 9 8 6 5 4 4 3 3 2 2 2 2 3 3
11 10 11 12 11 11 11 12 10 7 7 8 6 4 2 4 3 6 9 10 10 9 9 10 9 8 8 7 8 9 9 8 7 6 4 3 4 3 3 2 2 2 2 2
8 9 10 11 11 12 13 11 11 9 8 9 9 3 1 1 5 6 9 11 10 9 9 9 9 8 8 6 5 6 7 8 8 6 5 4 3 4 3 3 2 2 2 1
6 7 9 9 10 9 10 11 11 10 8 9 9 4 2 2 3 4 8 10 10 9 9 9 8 7 7 7 5 5 5 6 7 7 7 5 4 4 4 4 3 2 2 1
6 10 11 11 8 7 9 11 11 11 9 9 8 4 3 2 4 5 7 8 9 10 9 8 8 7 6 6 6 5 4 4 6 6 6 5 4 3 3 3 2 2 1 1
7 10 13 14 13 11 10 10 12 13 12 10 7 5 2 2 3 6 7 8 8 9 9 8 8 7 6 6 5 5 5 5 5 5 5 5 4 3 3 3 3 2 0 1
6 9 12 14 13 12 12 13 14 14 12 10 7 5 3 4 4 6 6 7 7 8 8 7 6 7 7 6 5 4 5 5 5 5 5 5 4 3 3 3 3 2 1 1
6 8 10 12 13 13 14 12 11 10 10 9 7 3 2 2 4 4 4 5 5 7 8 6 6 7 7 6 6 5 5 5 6 5 5 5 4 4 3 2 2 2 1 1
7 8 8 11 10 13 10 7 7 7 5 5 3 2 1 4 4 4 4 5 5 5 7 7 7 6 7 7 6 6 5 6 6 5 5 4 4 4 3 2 2 2 1 1
7 7 8 8 10 11 10 7 6 5 4 4 3 1 2 3 4 4 6 6 6 4 5 6 6 6 6 6 6 5 5 6 6 5 5 5 4 4 4 3 2 2 1 1
8 7 8 8 9 10 6 5 6 4 4 1 1 2 1 1 1 2 5 6 6 5 6 6 6 6 5 5 5 5 4 5 5 5 5 4 4 3 4 3 2 2 2 2
8 8 9 10 10 7 5 3 4 5 2 1 1 1 1 3 3 3 5 5 6 6 6 7 6 6 5 5 5 5 3 4 4 4 4 4 4 3 3 3 2 2 2 2
8 8 9 9 10 6 5 3 1 2 2 1 2 2 3 4 4 5 6 5 4 5 5 6 6 5 4 5 5 5 4 3 3 4 4 4 4 3 4 4 3 3 3 3
7 6 5 4 4 1 2 4 4 2 1 2 2 3 3 2 2 4 5 4 4 4 4 5 6 5 4 4 4 4 3 3 3 4 4 3 3 2 3 4 4 3 3 2
6 6 4 3 2 2 2 1 1 1 2 2 2 2 1 1 2 3 3 4 4 3 4 4 5 5 4 4 3 3 4 4 4 4 4 4 3 3 3 1 1 1 0 1
6 6 4 4 4 4 4 4 3 2 2 3 2 2 1 1 1 1 3 3 3 3 3 4 4 4 4 4 4 4 4 4 4 5 4 4 4 3 2 2 1 1 1 1
7 5 5 5 4 4 4 4 3 2 2 2 3 2 2 1 1 0 2 3 3 3 3 4 4 4 4 4 4 4 4 5 4 4 4 4 3 3 3 3 3 2 2 4
Wind_Direction
236 239 241 238 233 251 262 268 268 249 227 248 252 191 190 196 194 173 160 158 152 145 138 130 127 123 118 112 112 111 109 107 108 107 108 107 104 105 98 93 83 72 60 55
242 241 245 245 245 251 262 270 274 260 243 250 248 229 211 211 192 174 164 162 160 152 139 135 135 130 126 123 121 117 116 114 112 116 120 128 115 107 99 77 75 61 52 42
244 246 249 255 255 260 265 267 272 276 269 250 248 232 241 232 202 166 162 163 156 148 142 142 140 137 135 131 128 125 123 122 121 113 120 106 95 82 82 88 81 52 47 48
250 254 252 255 255 256 263 266 270 269 272 266 263 250 228 227 206 173 163 157 156 148 146 146 146 146 146 142 137 128 129 124 119 116 119 123 118 111 93 94 92 74 47 50
250 250 251 253 255 264 271 278 275 275 275 278 269 256 230 198 197 178 167 159 155 150 149 149 149 148 148 143 140 137 133 130 127 133 123 116 104 93 90 102 109 104 70 49
259 256 248 251 257 258 264 270 272 267 263 261 265 260 227 203 185 173 163 163 155 153 148 146 144 144 148 146 145 142 139 140 141 139 132 122 111 79 79 78 97 117 91 53
253 255 244 237 248 246 253 260 266 271 263 261 268 256 214 198 170 158 159 159 156 151 145 145 148 150 150 150 148 145 145 146 144 141 138 135 139 120 91 80 77 73 70 63
248 249 243 232 236 245 246 254 261 270 269 272 284 258 206 177 157 142 143 149 148 148 148 150 150 152 155 153 150 146 145 145 146 148 145 138 135 133 98 59 49 65 60 61
251 255 248 238 230 237 245 254 264 267 276 278 253 237 190 158 149 148 142 139 145 153 154 152 152 153 154 154 155 153 148 147 153 157 152 143 139 123 98 69 70 63 64 73
250 268 266 250 234 230 239 251 259 259 275 273 272 247 199 157 151 140 133 138 143 152 153 145 143 140 138 148 151 146 147 151 156 156 162 151 140 128 108 81 71 63 54 40
245 252 261 249 237 245 236 241 249 259 256 267 272 272 123 140 153 160 148 141 145 151 144 142 139 136 133 138 149 148 150 153 152 151 147 136 147 145 139 123 97 85 67 57
246 253 258 258 258 259 255 243 247 252 259 271 273 260 113 147 176 170 143 135 137 137 133 132 133 136 136 137 143 148 153 158 159 157 153 158 155 153 151 130 117 118 119 97
294 265 262 258 252 243 251 252 259 257 258 259 267 255 168 220 139 134 128 128 128 130 128 131 133 136 143 146 142 154 161 161 161 161 163 162 162 153 141 134 134 126 119 109
293 265 266 264 258 261 259 268 273 271 261 266 275 269 232 201 141 134 129 134 134 132 129 129 131 135 140 145 149 153 154 154 156 156 159 156 163 155 149 142 138 134 138 126
264 268 272 271 270 265 263 259 261 261 260 264 271 268 246 214 188 147 141 140 139 137 134 133 138 141 143 143 142 150 153 151 148 148 153 157 155 150 148 146 139 128 119 87
263 276 275 271 267 270 269 259 256 258 260 253 240 242 215 214 154 136 142 148 152 144 135 135 142 143 147 145 142 150 155 152 148 155 158 149 150 152 150 143 131 136 126 79
264 267 272 267 268 268 260 264 258 259 268 261 252 234 190 141 103 125 126 137 139 135 136 148 151 151 146 148 149 157 162 149 150 153 151 153 159 155 152 162 146 151 131 102
256 271 269 266 264 258 267 270 268 258 276 294 238 199 129 104 117 118 119 122 128 141 150 154 154 151 148 152 151 159 162 153 151 154 154 154 158 158 157 157 157 151 143 138
258 257 261 266 262 261 265 265 262 246 252 269 258 180 83 85 115 110 108 104 110 131 138 140 142 137 137 146 148 156 167 154 153 157 158 160 163 160 166 170 166 160 172 174
237 239 253 258 262 264 260 278 292 259 219 285 72 89 71 111 178 112 103 106 114 108 111 119 124 125 125 134 142 148 148 149 157 158 156 153 160 169 168 163 161 163 186 203
225 226 246 257 260 263 305 320 298 246 218 24 134 126 62 49 64 85 91 92 101 106 111 113 115 119 123 135 140 144 144 147 147 145 144 148 161 176 163 152 157 169 200 204
234 231 238 248 254 259 342 351 75 57 36 74 52 81 89 86 92 90 96 97 104 110 113 117 111 113 122 134 139 142 141 136 139 140 143 153 170 194 157 153 172 190 206 211
249 252 258 260 257 306 10 50 64 71 51 54 42 60 67 83 91 100 114 119 112 109 117 123 120 113 115 121 130 142 135 132 136 138 142 150 159 161 152 177 189 203 205 221
260 274 273 298 281 316 324 79 118 47 57 41 46 48 39 60 69 81 110 113 111 106 118 124 125 125 123 123 124 129 131 140 146 145 149 160 167 173 163 188 197 200 197 265
294 294 281 270 284 310 327 354 356 13 34 39 39 46 42 56 57 70 111 117 120 129 120 127 133 134 135 131 132 141 140 147 157 163 170 180 176 166 153 146 109 133 121 154
283 286 277 276 291 287 309 320 352 5 13 13 355 23 21 14 10 340 130 132 142 147 141 144 145 145 148 151 153 155 155 156 165 179 189 195 181 177 176 171 163 119 151 158
Height
1466 1467 1468 1463 1461 1459 1457 1457 1459 1456 1449 1453 1458 1460 1461 1461 1464 1466 1471 1475 1479 1483 1487 1489 1490 1492 1493 1494 1495 1495 1496 1496 1497 1498 1499 1500 1501 1502 1502 1503 1503 1503 1503 1503
1464 1464 1457 1454 1453 1453 1453 1457 1458 1453 1448 1451 1457 1460 1457 1458 1459 1463 1468 1472 1476 1481 1484 1487 1490 1492 1493 1494 1495 1495 1496 1497 1498 1499 1500 1501 1501 1502 1503 1503 1503 1504 1504 1504
1463 1456 1450 1451 1452 1454 1454 1456 1456 1456 1448 1448 1455 1465 1460 1456 1457 1460 1465 1469 1473 1478 1482 1486 1489 1491 1493 1494 1495 1496 1496 1497 1498 1499 1500 1501 1502 1503 1503 1504 1504 1504 1504 1504
1455 1449 1449 1451 1452 1452 1458 1447 1448 1449 1455 1459 1457 1477 1466 1459 1458 1458 1463 1467 1471 1476 1480 1484 1487 1490 1492 1494 1494 1495 1496 1497 1498 1499 1500 1501 1502 1503 1504 1504 1504 1505 1505 1504
1452 1448 1449 1452 1449 1447 1450 1444 1446 1447 1454 1462 1458 1470 1470 1458 1459 1458 1460 1465 1470 1474 1478 1482 1486 1489 1491 1493 1494 1495 1496 1497 1498 1499 1501 1502 1503 1504 1504 1505 1505 1505 1505 1505
1447 1443 1443 1445 1443 1444 1444 1446 1447 1447 1456 1477 1467 1471 1474 1457 1454 1454 1457 1462 1467 1472 1476 1480 1485 1488 1490 1492 1493 1494 1495 1497 1498 1499 1500 1502 1503 1504 1504 1505 1505 1505 1505 1505
1453 1444 1439 1441 1445 1444 1446 1458 1472 1479 1481 1481 1461 1464 1465 1449 1445 1448 1454 1459 1465 1470 1475 1479 1483 1486 1489 1491 1492 1493 1495 1496 1498 1499 1500 1501 1502 1504 1504 1505 1505 1505 1505 1504
1461 1458 1441 1438 1443 1449 1449 1455 1476 1492 1492 1481 1465 1469 1456 1444 1444 1448 1452 1458 1464 1469 1474 1478 1482 1485 1487 1489 1491 1492 1493 1495 1497 1498 1500 1501 1502 1503 1504 1505 1505 1505 1505 1504
1455 1456 1437 1435 1437 1442 1450 1452 1451 1467 1473 1479 1472 1463 1451 1442 1444 1448 1452 1458 1464 1469 1474 1477 1481 1484 1486 1488 1490 1491 1492 1494 1496 1498 1499 1500 1501 1502 1503 1504 1505 1505 1504 1504
1445 1456 1443 1436 1436 1437 1440 1445 1455 1466 1485 1488 1476 1468 1462 1451 1447 1448 1452 1458 1463 1468 1472 1476 1480 1483 1485 1487 1489 1490 1491 1493 1495 1497 1498 1500 1500 1501 1502 1503 1503 1503 1504 1503
1440 1452 1449 1440 1443 1445 1443 1447 1450 1456 1463 1477 1486 1474 1446 1448 1448 1449 1452 1457 1462 1467 1471 1475 1479 1482 1484 1487 1488 1489 1491 1492 1494 1495 1497 1498 1499 1500 1501 1501 1502 1502 1502 1502
1438 1447 1454 1446 1436 1435 1437 1442 1447 1463 1466 1462 1470 1468 1442 1443 1445 1448 1451 1456 1461 1466 1470 1474 1478 1481 1484 1486 1488 1489 1490 1491 1493 1494 1496 1497 1498 1499 1500 1501 1501 1501 1501 1501
1442 1448 1461 1460 1451 1441 1441 1438 1439 1444 1453 1460 1469 1466 1444 1443 1445 1447 1452 1457 1462 1466 1470 1474 1477 1481 1483 1485 1486 1488 1490 1491 1492 1493 1495 1496 1497 1498 1499 1500 1500 1501 1501 1500
1446 1447 1456 1464 1456 1449 1447 1443 1440 1445 1454 1457 1457 1457 1448 1445 1445 1449 1454 1458 1462 1466 1470 1473 1477 1480 1482 1484 1485 1487 1489 1490 1492 1493 1494 1495 1496 1497 1498 1498 1499 1500 1500 1500
1445 1450 1448 1444 1439 1439 1442 1443 1442 1445 1445 1452 1451 1451 1450 1446 1447 1450 1454 1458 1462 1466 1470 1473 1476 1479 1481 1484 1485 1486 1488 1489 1491 1492 1493 1493 1495 1496 1497 1498 1498 1498 1499 1499
1445 1451 1450 1448 1441 1440 1443 1440 1440 1439 1438 1442 1445 1449 1446 1446 1448 1451 1455 1457 1461 1465 1469 1473 1476 1478 1480 1482 1484 1485 1487 1488 1489 1490 1491 1492 1493 1495 1496 1497 1497 1497 1497 1497
1447 1452 1456 1455 1444 1445 1451 1440 1437 1438 1436 1438 1445 1445 1443 1445 1448 1452 1454 1457 1461 1465 1469 1472 1475 1477 1479 1481 1482 1484 1485 1487 1488 1489 1490 1491 1492 1494 1495 1496 1496 1496 1496 1496
1451 1454 1454 1453 1453 1467 1446 1431 1431 1435 1436 1435 1437 1441 1442 1446 1450 1453 1456 1458 1461 1465 1468 1471 1474 1476 1478 1480 1481 1483 1484 1486 1487 1488 1490 1490 1492 1493 1494 1495 1495 1495 1495 1495
1447 1452 1454 1454 1459 1455 1442 1433 1432 1437 1441 1439 1439 1441 1443 1446 1450 1453 1456 1459 1462 1465 1468 1470 1473 1475 1477 1479 1480 1482 1483 1485 1486 1487 1488 1490 1491 1492 1493 1493 1493 1494 1494 1494
1444 1447 1453 1455 1464 1465 1446 1433 1432 1436 1446 1442 1441 1443 1446 1448 1453 1456 1458 1460 1463 1466 1468 1470 1472 1474 1476 1478 1479 1481 1483 1484 1485 1486 1487 1488 1490 1490 1491 1492 1492 1493 1493 1493
1449 1451 1455 1456 1460 1451 1438 1435 1436 1450 1453 1445 1444 1446 1449 1451 1454 1457 1458 1462 1464 1466 1468 1470 1471 1473 1475 1477 1479 1480 1481 1482 1484 1485 1486 1487 1488 1489 1490 1491 1491 1492 1492 1492
1448 1451 1454 1454 1460 1458 1441 1439 1445 1450 1447 1446 1447 1448 1450 1453 1455 1457 1459 1462 1464 1467 1468 1469 1471 1473 1474 1476 1477 1479 1480 1481 1483 1484 1485 1486 1487 1489 1490 1490 1490 1491 1491 1491
1441 1443 1444 1447 1451 1446 1445 1446 1447 1447 1448 1448 1449 1450 1451 1453 1456 1458 1460 1463 1464 1466 1468 1470 1471 1473 1474 1475 1476 1478 1479 1480 1481 1483 1484 1485 1486 1487 1488 1489 1489 1489 1490 1490
1441 1440 1442 1446 1443 1444 1446 1446 1447 1448 1448 1449 1450 1452 1453 1455 1456 1458 1460 1462 1464 1466 1468 1469 1471 1472 1473 1474 1475 1477 1478 1479 1480 1482 1483 1484 1485 1486 1487 1487 1488 1488 1488 1489
1445 1444 1444 1447 1446 1446 1447 1447 1448 1449 1450 1451 1451 1453 1454 1456 1457 1458 1460 1462 1464 1466 1467 1469 1470 1471 1472 1473 1474 1476 1477 1478 1479 1480 1482 1483 1484 1485 1485 1486 1486 1487 1487 1487
1445 1446 1448 1448 1448 1448 1449 1448 1448 1450 1451 1452 1453 1453 1455 1456 1457 1459 1460 1462 1463 1465 1466 1468 1469 1470 1471 1471 1472 1474 1475 1476 1478 1479 1480 1482 1483 1483 1484 1484 1485 1485 1485 1485